Weather History for Jackson, WY

Change the Weather History Date:

Sunday, June 23, 2013

  Actual Average Record
Temperature  
Mean Temperature 50 °F -  
Max Temperature 71 °F 72 °F 86 °F (1961)
Min Temperature 28 °F 37 °F 28 °F (2013)
Degree Days  
Heating Degree Days 16    
Moisture  
Dew Point 29 °F    
Average Humidity 58    
Maximum Humidity 93    
Minimum Humidity 16    
Precipitation  
Precipitation 0.00 in - - ()
Sea Level Pressure  
Sea Level Pressure 30.02 in    
Wind  
Wind Speed 5 mph (North)    
Max Wind Speed 15 mph    
Max Gust Speed 23 mph    
Visibility 10 miles    
Events      
Averages and records for this station are not official NWS values.
T = Trace of Precipitation, MM = Missing Value Source: NWS Daily Summary

Daily Weather History Graph

Daily Weather History Graph

Search for Another Location

Airport:

Trip Planner

Search our weather history database for the weather conditions in past years. The results will help you decide how hot, cold, wet, or windy it might be!

Date:

Astronomy

Jun. 23, 2013 Rise Set
Actual Time 5:42 AM MDT 9:08 PM MDT
Civil Twilight 5:06 AM MDT 9:44 PM MDT
Nautical Twilight 4:19 AM MDT 10:31 PM MDT
Astronomical Twilight 3:19 AM MDT 11:30 PM MDT
Moon 9:20 PM MDT (6/23) 6:05 AM MDT (6/23)
Length of Visible Light 16h 38m
Length of Day
15h 26m
Full, 100% of the Moon is Illuminated
Jun 23
Full
Jun 29
Last Quarter
Jul 8
New
Jul 15
First Quarter
Jul 22
Full

Hourly Weather History & Observations

Time (MDT) Temp. Windchill Dew Point Humidity Pressure Visibility Wind Dir Wind Speed Gust Speed Precip Events Conditions
12:15 AM 37.4 °F 34.9 °F 30.2 °F 75% 30.12 in 10.0 mi NNE 3.5 mph - N/A   Clear
12:35 AM 37.4 °F 34.9 °F 28.4 °F 70% 30.11 in 10.0 mi NE 3.5 mph - N/A   Clear
12:55 AM 33.8 °F - 26.6 °F 75% 30.12 in 10.0 mi Calm Calm - N/A   Clear
1:15 AM 33.8 °F 29.6 °F 28.4 °F 81% 30.11 in 10.0 mi NW 4.6 mph - N/A   Clear
1:35 AM 33.8 °F 28.6 °F 28.4 °F 81% 30.11 in 10.0 mi NNE 5.8 mph - N/A   Clear
1:55 AM 35.6 °F 32.8 °F 30.2 °F 81% 30.12 in 10.0 mi NNE 3.5 mph - N/A   Clear
2:15 AM 33.8 °F 25.8 °F 28.4 °F 81% 30.11 in 10.0 mi North 10.4 mph - N/A   Partly Cloudy
2:35 AM 33.8 °F 27.7 °F 30.2 °F 87% 30.11 in 10.0 mi North 6.9 mph - N/A   Clear
2:55 AM 33.8 °F 28.6 °F 28.4 °F 81% 30.12 in 10.0 mi North 5.8 mph - N/A   Clear
3:15 AM 32.0 °F 28.7 °F 28.4 °F 87% 30.12 in 10.0 mi NNW 3.5 mph - N/A   Clear
3:36 AM 32.0 °F 25.6 °F 28.4 °F 87% 30.12 in 10.0 mi North 6.9 mph - N/A   Clear
3:55 AM 30.2 °F 22.6 °F 28.4 °F 93% 30.11 in 10.0 mi North 8.1 mph - N/A   Clear
4:15 AM 32.0 °F 27.5 °F 28.4 °F 87% 30.11 in 10.0 mi North 4.6 mph - N/A   Clear
4:35 AM 32.0 °F 25.6 °F 28.4 °F 87% 30.10 in 10.0 mi NW 6.9 mph - N/A   Clear
4:55 AM 32.0 °F - 28.4 °F 87% 30.10 in 10.0 mi Calm Calm - N/A   Clear
5:15 AM 30.2 °F - 28.4 °F 93% 30.10 in - Calm Calm - N/A   Unknown
5:35 AM 32.0 °F 25.6 °F 28.4 °F 87% 30.10 in - North 6.9 mph - N/A   Unknown
5:55 AM 28.4 °F 23.3 °F 26.6 °F 93% 30.09 in 10.0 mi North 4.6 mph - N/A   Clear
6:15 AM 28.4 °F 24.6 °F 26.6 °F 93% 30.09 in 10.0 mi NNE 3.5 mph - N/A   Clear
6:51 AM 35.6 °F - 30.2 °F 81% 30.09 in 10.0 mi Calm Calm - N/A   Clear
7:52 AM 41.0 °F - 30.2 °F 65% 30.10 in 10.0 mi Calm Calm - N/A   Clear
8:51 AM 46.4 °F 45.2 °F 30.2 °F 53% 30.09 in 10.0 mi ESE 3.5 mph - N/A   Clear
9:51 AM 51.8 °F - 33.8 °F 50% 30.07 in 10.0 mi Calm Calm - N/A   Clear
10:51 AM 60.8 °F - 30.2 °F 31% 30.03 in 10.0 mi South 8.1 mph - N/A   Clear
11:51 AM 64.4 °F - 28.4 °F 26% 30.01 in 10.0 mi South 11.5 mph 19.6 mph N/A   Clear
12:51 PM 66.2 °F - 24.8 °F 21% 29.99 in 10.0 mi SSE 11.5 mph 23.0 mph N/A   Clear
1:51 PM 69.8 °F - 21.2 °F 16% 29.96 in 10.0 mi SSE 13.8 mph 20.7 mph N/A   Clear
2:56 PM 69.8 °F - 23.0 °F 17% 29.95 in 10.0 mi South 15.0 mph 21.9 mph N/A   Clear
3:52 PM 71.6 °F - 24.8 °F 17% 29.93 in 10.0 mi South 15.0 mph 20.7 mph N/A   Clear
4:53 PM 71.6 °F - 24.8 °F 17% 29.92 in 10.0 mi Calm Calm - N/A   Clear
5:52 PM 71.6 °F - 24.8 °F 17% 29.91 in 10.0 mi South 8.1 mph 17.3 mph N/A   Clear
6:59 PM 71.6 °F - 26.6 °F 19% 29.90 in 10.0 mi SW 8.1 mph - N/A   Clear
7:58 PM 69.8 °F - 28.4 °F 21% 29.90 in 10.0 mi SW 5.8 mph - N/A   Clear
8:52 PM 64.4 °F - 30.2 °F 28% 29.90 in 10.0 mi Calm Calm - N/A   Clear
9:15 PM 60.8 °F - 30.2 °F 31% 29.90 in 10.0 mi Calm Calm - N/A   Clear
9:35 PM 57.2 °F - 30.2 °F 36% 29.90 in 10.0 mi Calm Calm - N/A   Clear
9:55 PM 55.4 °F - 30.2 °F 38% 29.91 in 10.0 mi NNE 4.6 mph - N/A   Clear
10:15 PM 53.6 °F - 35.6 °F 51% 29.91 in 10.0 mi North 4.6 mph - N/A   Clear
10:35 PM 50.0 °F - 35.6 °F 58% 29.91 in 10.0 mi North 6.9 mph - N/A   Clear
10:55 PM 51.8 °F - 33.8 °F 50% 29.90 in 10.0 mi NE 5.8 mph - N/A   Clear
11:15 PM 53.6 °F - 33.8 °F 47% 29.90 in 10.0 mi Calm Calm - N/A   Clear
11:35 PM 51.8 °F - 33.8 °F 50% 29.90 in 10.0 mi Calm Calm - N/A   Clear
11:55 PM 51.8 °F - 35.6 °F 54% 29.89 in 10.0 mi Calm Calm - N/A   Clear